Bournemouth, United Kingdom

11:44 PM GMT on February 05, 2016 (GMT +0000)
Bournemouth

Weather History for EGHH - October, 2013

Change the Weather History Date:

Friday, October 11, 2013

  Actual Average Record
Temperature  
Mean Temperature 52 °F -  
Max Temperature 60 °F 56 °F - ()
Min Temperature 43 °F 42 °F - ()
Degree Days  
Heating Degree Days 14    
Growing Degree Days 2 (Base 50)    
Moisture  
Dew Point 46 °F    
Average Humidity 78    
Maximum Humidity 94    
Minimum Humidity 42    
Precipitation  
Precipitation 0.08 in 0.11 in - ()
Sea Level Pressure  
Sea Level Pressure 30.07 in    
Wind  
Wind Speed 15 mph ()    
Max Wind Speed 22 mph    
Max Gust Speed 34 mph    
Visibility 7.4 miles    
Events Rain    
T = Trace of Precipitation, MM = Missing Value Source: Averaged Metar Reports

Daily Weather History Graph

Daily Weather History Graph

Search for Another Location

Airport or City:

Trip Planner

Search our weather history database for the weather conditions in past years. The results will help you decide how hot, cold, wet, or windy it might be!

Date:

Astronomy

Oct. 11, 2013 Rise Set
Actual Time 7:23 AM BST 6:23 PM BST
Civil Twilight 6:50 AM BST 6:56 PM BST
Nautical Twilight 6:12 AM BST 7:34 PM BST
Astronomical Twilight 5:34 AM BST 8:12 PM BST
Moon 2:15 PM BST (10/11) 11:31 PM BST (10/11)
Length of Visible Light 12h 05m
Length of Day
10h 59m
Waxing Crescent, 44% of the Moon is Illuminated
Oct 11
Waxing Crescent
Oct 12
First Quarter
Oct 19
Full
Oct 27
Last Quarter
Nov 3
New

Hourly Weather History & Observations

Time (BST) Temp. Windchill Dew Point Humidity Pressure Visibility Wind Dir Wind Speed Gust Speed Precip Events Conditions
12:50 AM 45 °F - 38 °F 68% 30.14 in 31 mi NNW 12.7 mph - -   Scattered Clouds
3:50 AM 47 °F - 38 °F 61% 30.06 in 17 mi North 21.9 mph - -   Partly Cloudy
4:50 AM 46.4 °F 39.2 °F 39.2 °F 76% 30.04 in 6.2 mi North 18.4 mph - N/A   Partly Cloudy
5:20 AM 46.4 °F 39.0 °F 39.2 °F 76% 30.04 in 6.2 mi North 19.6 mph 34.5 mph N/A   Partly Cloudy
5:50 AM 46.4 °F 39.0 °F 39.2 °F 76% 30.01 in 6.2 mi North 19.6 mph 34.5 mph N/A   Partly Cloudy
6:20 AM 46.4 °F 39.2 °F 41.0 °F 81% 30.01 in - North 18.4 mph 34.5 mph N/A   Clear
6:50 AM 47 °F - 42 °F 76% 30.04 in 18 mi North 13.8 mph - -  
6:50 AM 48.2 °F - 42.8 °F 82% 30.04 in 6.2 mi North 13.8 mph 34.5 mph N/A   Scattered Clouds
7:20 AM 48.2 °F - 42.8 °F 82% 30.04 in 6.2 mi North 17.3 mph - N/A   Scattered Clouds
7:50 AM 48.2 °F - 44.6 °F 87% 30.04 in 6.2 mi North 17.3 mph 34.5 mph N/A   Partly Cloudy
8:20 AM 50.0 °F - 44.6 °F 82% 30.04 in 6.2 mi NNE 18.4 mph 34.5 mph N/A   Scattered Clouds
8:50 AM 51.8 °F - 46.4 °F 82% 30.06 in 6.2 mi NNE 16.1 mph - N/A   Scattered Clouds
9:20 AM 51.8 °F - 44.6 °F 76% 30.09 in 6.2 mi NNE 16.1 mph 34.5 mph N/A   Mostly Cloudy
9:50 AM 53 °F - 45 °F 67% 30.11 in 19 mi NNE 15.0 mph - -   Mostly Cloudy
9:50 AM 53.6 °F - 44.6 °F 72% 30.09 in 6.2 mi NNE 15.0 mph - N/A   Mostly Cloudy
10:20 AM 53.6 °F - 46.4 °F 77% 30.09 in 6.2 mi NNE 15.0 mph 34.5 mph N/A   Scattered Clouds
10:50 AM 55.4 °F - 46.4 °F 72% 30.12 in 6.2 mi NE 12.7 mph - N/A   Scattered Clouds
11:20 AM 55.4 °F - 44.6 °F 67% 30.12 in 6.2 mi NE 17.3 mph 34.5 mph N/A   Scattered Clouds
11:50 AM 55.4 °F - 44.6 °F 67% 30.12 in 6.2 mi NE 15.0 mph - N/A   Partly Cloudy
12:20 PM 57.2 °F - 42.8 °F 59% 30.09 in 6.2 mi NE 16.1 mph 34.5 mph N/A   Partly Cloudy
12:50 PM 60 °F - 43 °F 42% 30.12 in 22 mi NE 16.1 mph - -   Scattered Clouds
12:50 PM 60.8 °F - 42.8 °F 52% 30.09 in 6.2 mi NE 16.1 mph - N/A   Partly Cloudy
1:20 PM 59.0 °F - 41.0 °F 51% 30.09 in 6.2 mi NE 15.0 mph - N/A   Partly Cloudy
1:50 PM 57.2 °F - 42.8 °F 59% 30.09 in 6.2 mi NE 9.2 mph - N/A   Light Drizzle
2:20 PM 55.4 °F - 46.4 °F 72% 30.09 in 6.2 mi NNE 11.5 mph - N/A Rain Light Rain
2:50 PM 51.8 °F - 50.0 °F 94% 30.09 in 2.8 mi North 13.8 mph 34.5 mph N/A Rain Light Rain
3:20 PM 51.8 °F - 50.0 °F 94% 30.09 in 2.8 mi North 9.2 mph - N/A Rain Light Rain
3:50 PM 53 °F - 51 °F 92% 30.08 in 10 mi North 12.7 mph - - Rain Light Rain
3:50 PM 53.6 °F - 51.8 °F 94% 30.06 in 6.2 mi North 12.7 mph 34.5 mph N/A Rain Light Rain
4:20 PM 55.4 °F - 51.8 °F 88% 30.04 in 6.2 mi North 16.1 mph - N/A   Scattered Clouds
4:50 PM 55.4 °F - 51.8 °F 88% 30.06 in 6.2 mi North 19.6 mph - N/A Rain Light Rain
5:20 PM 53.6 °F - 51.8 °F 94% 30.04 in 5.6 mi North 18.4 mph - N/A Rain Light Rain
5:50 PM 53.6 °F - 51.8 °F 94% 30.04 in 6.2 mi North 17.3 mph 34.5 mph N/A Rain Light Rain
6:50 PM 55 °F - 51 °F 81% 30.06 in 11 mi North 18.4 mph - - Rain Rain
6:50 PM 55.4 °F - 50.0 °F 82% 30.04 in 6.2 mi North 18.4 mph - N/A Rain Light Rain
7:20 PM 55.4 °F - 51.8 °F 88% 30.06 in 6.2 mi North 19.6 mph - N/A   Mostly Cloudy
7:50 PM 55.4 °F - 51.8 °F 88% 30.06 in 6.2 mi NNE 19.6 mph 31.1 mph N/A   Overcast
8:20 PM 55.4 °F - 50.0 °F 82% 30.06 in 6.2 mi NNE 18.4 mph - N/A   Overcast
8:50 PM 55.4 °F - 50.0 °F 82% 30.06 in 6.2 mi NNE 17.3 mph - N/A   Overcast
9:20 PM 55.4 °F - 50.0 °F 82% 30.06 in - NNE 17.3 mph - N/A   Clear
9:50 PM 56 °F - 50 °F 75% 30.07 in 15 mi NNE 17.3 mph - -   Mostly Cloudy
9:50 PM 55.4 °F - 50.0 °F 82% 30.06 in 6.2 mi NNE 17.3 mph - N/A   Mostly Cloudy
10:20 PM 55.4 °F - 50.0 °F 82% 30.06 in 6.2 mi NNE 18.4 mph - N/A   Overcast
10:50 PM 55.4 °F - 50.0 °F 82% 30.06 in - NNE 19.6 mph 32.2 mph N/A   Clear
11:50 PM 55.4 °F - 50.0 °F 82% 30.04 in - NNE 19.6 mph 31.1 mph N/A   Clear